Location: Monfort
(47.1967°N, 0.2115°W)
Time: 04:26:23
(UTC+00:00)

Cosmos 2228 - Pass Details

Date: 24 October 2020
Orbit: 590 x 617 km, 82.5° (Epoch: 01 December)

Event Time Altitude Azimuth Distance (km) Brightness Sun altitude
Rises 17:57:15 0° 184° (S) 2,810 6.6 -10.9°
Reaches altitude 10° 17:59:26 10° 183° (S) 1,916 5.7 -11.3°
Maximum altitude 18:03:39 77° 98° (E) 614 2.9 -12.0°
Drops below altitude 10° 18:07:56 10° 12° (NNE) 1,943 5.4 -12.7°
Sets 18:10:10 0° 11° (N) 2,854 6.3 -13.1°
